GEFSNGP_con_probscp_192.txt.gz
Probability
0 0 0 0 0 0 0 0 2 6 12 15 13 13 17 20 22 23 24 28 37 46 48 45 43 41 40 42 48 49 46 44 43 40 40 43 44 42 38 35 35 36 37 37
0 0 0 0 0 0 0 1 3 7 13 16 15 17 20 21 23 25 25 29 38 45 47 45 41 41 42 45 48 48 46 44 42 41 40 40 39 37 35 32 32 34 34 34
0 0 0 0 0 1 2 4 7 12 16 19 20 22 24 24 25 26 27 31 39 46 48 45 42 43 45 48 49 47 44 41 40 40 38 35 33 33 33 31 30 31 32 32
1 0 0 2 4 6 9 13 16 20 23 25 26 26 27 28 30 29 28 33 40 44 44 44 42 43 44 45 44 41 38 36 36 35 34 31 30 32 33 32 31 31 31 31
1 0 0 4 9 14 18 22 24 26 28 29 27 26 27 29 31 30 29 33 35 35 35 38 40 40 39 38 35 33 32 33 33 33 32 31 31 33 34 32 30 29 29 28
1 0 2 6 14 18 21 24 26 28 29 27 26 26 27 26 26 26 28 28 28 28 31 36 39 38 36 32 30 29 28 29 32 34 35 35 36 36 33 29 27 25 23 22
1 2 5 11 17 23 28 31 31 29 28 29 29 30 28 24 23 25 26 25 26 30 34 39 41 39 35 32 30 28 26 27 31 34 36 37 39 38 32 26 22 21 20 19
6 8 12 19 25 33 42 42 36 31 31 33 34 32 28 26 25 26 27 26 29 34 38 39 38 37 35 33 30 27 26 26 28 31 32 34 37 35 28 22 18 17 16 16
14 15 22 29 33 39 43 40 36 35 35 34 31 27 26 26 26 27 27 27 29 32 35 33 31 32 33 30 27 26 27 27 28 28 29 30 32 29 23 17 14 12 10 10
17 19 24 32 34 33 32 31 32 36 34 30 25 23 24 24 24 24 24 24 25 27 28 26 25 26 27 26 23 23 26 27 27 27 26 26 25 22 18 14 10 7 6 6
18 18 19 24 24 21 22 25 27 28 27 25 22 21 22 21 20 19 20 20 21 22 23 22 22 21 23 23 22 21 23 25 25 23 22 21 19 15 13 9 6 4 5 5
18 16 15 15 14 14 17 20 21 20 20 20 20 20 19 17 15 15 16 18 19 20 20 20 21 20 20 23 23 21 21 20 20 21 20 19 16 12 7 4 2 2 3 3
18 16 14 13 12 13 15 16 17 17 16 15 16 16 14 13 14 15 15 16 17 17 17 19 21 19 19 22 23 21 18 15 15 18 19 18 15 10 5 2 1 1 1 1
14 14 13 12 12 12 14 15 16 15 13 12 12 12 11 11 13 15 14 14 14 14 14 17 19 18 15 17 19 17 15 13 12 15 17 15 12 9 7 5 4 3 2 1
10 10 10 10 10 11 12 13 13 12 12 11 10 9 9 10 12 13 13 13 12 11 12 14 16 16 14 13 14 13 12 11 10 11 14 12 9 8 7 7 6 5 4 2
7 7 7 8 10 10 9 8 8 9 9 9 8 8 8 10 11 11 11 10 10 10 12 14 14 15 15 12 10 9 7 6 5 7 10 10 9 9 9 8 7 6 5 4
5 5 5 6 8 7 5 3 4 5 5 6 6 7 7 8 8 7 6 6 6 8 11 13 13 14 14 11 7 5 3 2 2 4 7 9 9 11 11 10 7 7 5 4
4 4 4 4 5 4 3 3 3 3 3 4 5 6 8 7 5 4 3 3 4 7 10 11 11 11 11 8 5 3 3 3 2 3 6 7 9 11 12 10 8 7 5 3
3 3 3 3 3 3 4 5 5 4 4 4 5 6 6 5 3 3 4 4 5 8 9 9 8 8 8 6 4 3 3 4 3 3 2 3 6 8 9 8 7 6 5 4
2 1 1 2 3 4 6 7 7 6 6 7 6 5 4 4 3 3 4 4 5 7 7 7 6 5 4 4 3 2 3 4 3 1 1 1 3 4 5 5 5 5 5 4
1 0 0 1 4 5 6 7 7 6 6 7 6 4 3 3 2 2 2 3 4 5 4 4 4 3 2 1 1 1 2 2 1 1 1 2 2 3 3 3 3 3 3 3
1 0 1 2 5 6 6 6 6 5 5 4 4 3 2 1 1 1 1 2 2 2 2 1 1 1 0 0 0 1 1 0 0 0 1 1 2 2 2 2 2 2 2 1
2 2 3 5 6 6 6 5 4 4 3 2 2 1 1 0 0 0 1 1 1 1 1 0 0 0 0 0 0 0 0 0 0 0 0 0 1 1 1 1 1 1 1 0
3 2 3 5 6 5 5 3 3 2 1 1 1 0 0 0 0 0 0 0 0 0 0 0 0 0 0 0 0 0 0 0 0 0 0 0 0 0 0 0 0 0 0 0
3 2 3 3 4 3 2 1 1 1 0 0 0 0 0 0 0 0 0 0 0 0 0 0 0 0 0 0 0 0 0 0 0 0 0 0 0 0 0 0 0 0 0 0
3 3 3 2 2 1 0 0 0 0 0 0 0 0 0 0 0 0 0 0 0 0 0 0 0 0 0 0 0 0 0 0 0 0 0 0 0 0 0 0 0 0 0 0
3 3 3 3 2 1 0 0 0 0 0 0 0 0 0 0 0 0 0 0 0 0 0 0 0 0 0 0 0 0 0 0 0 0 0 0 0 0 0 0 0 0 0 0

GEFSNGP_con_probscp_198.txt.gz
Probability
0 0 0 0 0 0 0 0 1 2 3 3 2 4 9 16 22 26 29 31 29 26 27 29 30 33 32 30 30 29 26 23 20 18 17 15 13 13 13 12 11 11 8 7
0 0 0 0 0 1 1 0 1 5 6 5 5 7 12 17 22 26 30 31 30 27 26 27 28 27 26 25 24 23 22 20 17 15 14 13 12 12 13 12 11 12 11 10
0 0 0 0 0 1 2 1 3 7 9 9 9 12 15 18 22 26 28 27 27 27 26 25 24 22 20 19 18 18 18 16 13 12 13 13 12 11 12 12 13 14 14 13
0 0 0 0 0 1 2 2 4 8 12 14 18 20 19 18 20 23 23 20 21 25 25 24 21 19 18 16 14 15 14 13 12 12 13 14 13 12 12 13 15 15 15 16
0 0 0 0 0 1 1 3 6 10 15 21 27 28 24 19 18 19 18 16 16 20 23 21 17 16 16 14 12 11 11 11 12 13 14 16 17 16 16 16 16 16 16 16
0 0 0 1 2 2 1 3 9 14 18 22 27 28 23 18 15 15 15 14 14 16 18 17 13 12 14 13 11 9 9 9 10 12 14 17 18 19 19 17 15 14 14 14
0 0 1 3 5 3 2 4 9 16 19 19 20 21 18 14 12 13 16 17 17 16 14 12 11 11 12 13 10 8 8 8 8 10 12 14 15 15 15 13 11 11 10 10
0 0 1 4 5 3 2 5 9 14 17 17 17 17 15 13 13 16 19 19 18 16 12 9 9 10 11 11 9 7 6 5 6 7 8 10 10 11 10 9 8 8 8 7
2 2 3 5 5 4 4 7 10 12 14 15 17 16 15 16 18 19 19 18 17 15 11 8 8 9 10 9 8 6 4 4 4 5 6 7 8 8 9 9 9 8 7 6
5 5 6 6 6 5 7 8 10 11 12 14 17 17 16 17 19 18 17 15 14 12 9 8 8 10 9 9 8 7 6 5 5 4 4 4 5 5 7 8 8 8 6 4
5 6 7 8 7 7 9 10 10 11 12 14 18 18 16 15 15 15 15 15 13 11 9 8 10 10 9 9 8 7 6 5 5 4 3 2 2 2 2 4 4 5 4 2
4 4 6 6 6 6 9 10 11 12 12 13 15 15 14 12 12 12 13 14 13 11 9 8 10 10 8 7 6 5 4 4 4 4 3 2 2 1 0 1 1 1 1 1
3 3 3 3 4 4 6 8 9 11 10 9 9 9 9 10 10 10 10 10 10 9 8 8 9 9 7 5 3 3 3 3 2 3 3 3 3 2 1 0 0 0 0 0
3 3 2 1 2 2 3 3 5 6 6 5 4 5 5 7 8 8 7 7 6 7 7 7 6 6 6 5 3 3 2 1 1 1 2 3 3 3 1 0 0 0 0 0
2 1 1 0 1 1 1 1 1 2 4 5 4 4 4 5 6 7 6 6 6 6 5 4 4 4 6 6 4 3 2 1 0 0 1 1 2 2 2 1 0 0 0 0
1 0 0 0 0 0 0 0 0 2 5 5 4 4 4 5 6 6 6 6 5 4 4 3 3 4 5 5 3 2 1 0 0 0 0 0 1 1 1 1 0 0 0 0
0 0 0 0 0 0 0 0 0 2 4 4 3 3 4 5 6 6 6 5 4 3 3 3 3 3 4 3 2 1 0 0 0 0 0 0 0 0 0 0 0 0 0 0
0 0 0 0 0 0 0 0 1 2 4 4 4 4 5 6 6 6 5 4 3 2 2 2 2 2 2 2 1 0 0 0 0 0 0 0 0 0 0 0 0 0 0 0
0 0 0 0 0 0 0 0 1 2 4 5 6 6 6 6 6 5 3 1 1 1 1 1 0 1 1 1 0 0 0 0 0 0 0 0 0 0 0 0 0 0 0 0
0 0 0 0 0 0 0 0 1 1 3 4 5 5 5 4 4 3 1 0 0 0 0 0 0 0 0 0 0 0 0 0 0 0 0 0 0 0 0 0 0 0 0 0
0 0 0 0 0 0 0 0 0 0 1 1 2 2 2 1 1 1 0 0 0 0 0 0 0 0 0 0 0 0 0 0 0 0 0 0 0 0 0 0 0 0 0 0
0 0 0 0 0 0 0 0 0 0 0 0 0 0 0 0 0 0 0 0 0 0 0 0 0 0 0 0 0 0 0 0 0 0 0 0 0 0 0 0 0 0 0 0
0 0 0 0 0 0 0 0 0 0 0 0 0 0 0 0 0 0 0 0 0 0 0 0 0 0 0 0 0 0 0 0 0 0 0 0 0 0 0 0 0 0 0 0
0 0 0 0 0 0 0 0 0 0 0 0 0 0 0 0 0 0 0 0 0 0 0 0 0 0 0 0 0 0 0 0 0 0 0 0 0 0 0 0 0 0 0 0
1 0 0 0 0 0 0 0 0 0 0 0 0 0 0 0 0 0 0 0 0 0 0 0 0 0 0 0 0 0 0 0 0 0 0 0 0 0 0 0 0 0 0 0
1 0 0 0 0 0 0 0 0 0 0 0 0 0 0 0 0 0 0 0 0 0 0 0 0 0 0 0 0 0 0 0 0 0 0 0 0 0 0 0 0 0 0 0
1 0 0 0 0 0 0 0 0 0 0 0 0 0 0 0 0 0 0 0 0 0 0 0 0 0 0 0 0 0 0 0 0 0 0 0 0 0 0 0 0 0 0 0

GEFSNGP_con_probscp_204.txt.gz
Probability
2 3 4 4 3 1 0 0 0 0 0 0 1 3 6 8 9 10 12 13 15 16 16 16 16 17 18 16 13 13 15 15 12 10 9 9 9 6 5 5 6 7 6 5
2 2 3 4 3 2 1 0 0 0 0 0 2 5 7 9 9 9 10 11 13 14 15 15 17 19 19 15 11 11 13 14 13 11 9 9 8 8 7 6 7 8 7 6
1 1 1 2 3 3 2 1 1 0 0 1 4 7 9 8 7 7 7 8 11 12 13 14 17 19 18 13 11 10 11 12 12 9 8 8 8 8 9 9 8 8 7 8
0 0 0 1 1 2 3 2 1 1 1 3 6 9 9 6 4 3 3 5 7 10 12 14 15 16 14 11 10 9 9 9 8 7 5 5 4 6 9 10 9 8 8 8
0 0 0 0 0 1 2 2 1 1 2 5 8 9 7 4 2 1 2 3 5 8 11 12 13 13 13 10 7 6 6 7 6 4 3 2 2 4 7 8 8 8 8 7
0 0 0 0 0 0 1 1 1 1 3 5 7 7 5 4 2 2 2 3 5 8 11 12 12 12 11 7 4 3 4 5 5 3 2 1 2 4 5 5 5 6 6 6
0 0 0 0 0 0 0 0 0 1 3 4 5 5 5 5 4 3 3 4 6 9 12 12 12 12 9 5 3 3 3 4 3 2 2 3 3 3 3 3 3 4 4 5
0 0 0 0 0 0 0 0 1 2 4 4 5 6 6 6 5 4 3 4 7 11 12 12 11 10 7 4 3 3 3 3 3 3 3 3 3 3 3 3 3 3 3 4
0 0 0 0 0 0 0 0 1 3 5 6 7 7 6 6 6 5 4 5 9 13 13 10 7 5 3 2 3 3 3 3 3 3 3 3 3 3 3 3 4 4 4 4
0 0 0 0 0 0 0 1 3 5 6 8 8 8 6 7 8 7 5 5 9 12 12 8 4 2 1 1 3 3 3 3 3 3 3 3 3 3 3 4 4 5 4 4
0 0 0 0 0 0 0 2 4 6 7 9 10 9 8 7 8 7 5 4 7 10 9 6 3 3 2 3 3 3 3 3 3 3 3 3 2 2 2 3 3 3 2 2
0 0 0 0 0 0 1 2 3 5 8 9 10 9 8 7 6 5 3 3 5 8 7 5 4 4 4 4 3 3 3 3 3 2 2 1 1 1 1 1 1 1 0 1
0 0 0 0 1 1 2 3 4 6 8 9 9 7 6 5 3 2 1 2 5 6 6 6 5 5 5 5 4 3 2 2 1 1 1 0 0 0 0 0 0 0 0 0
0 0 0 0 1 2 3 3 5 7 8 8 6 4 3 2 2 1 0 2 5 6 6 6 6 5 5 5 4 2 1 1 0 0 0 0 0 0 0 0 0 0 0 0
0 0 0 0 1 2 2 3 6 7 6 5 3 1 1 2 2 1 0 2 5 6 6 6 6 5 4 3 2 0 0 0 0 0 0 0 0 0 0 0 0 0 0 0
0 0 0 0 0 1 1 3 4 4 3 2 1 0 1 2 3 1 1 3 6 6 6 6 6 5 3 2 1 1 1 0 0 0 0 0 0 0 0 0 0 0 0 0
0 0 0 0 0 0 1 2 2 2 1 1 0 0 1 3 3 3 3 5 6 6 6 6 5 4 3 3 2 2 1 0 0 0 0 0 0 0 0 0 0 0 0 0
0 0 0 0 0 0 1 1 1 1 0 0 0 1 2 3 3 3 4 6 6 6 6 5 4 3 3 3 2 1 1 0 0 0 0 0 0 0 0 0 0 0 0 0
0 0 0 0 0 0 0 0 0 0 0 0 0 1 2 3 3 4 5 6 6 5 4 3 2 2 2 1 1 0 0 0 0 0 0 0 0 0 0 0 0 0 0 0
0 0 0 0 0 0 0 0 0 0 0 0 0 1 1 1 1 3 5 4 4 3 1 1 0 1 1 0 0 0 0 0 0 0 0 0 0 0 0 0 0 0 0 0
0 0 0 0 0 0 0 0 0 0 0 0 0 0 1 1 1 3 4 3 2 1 0 0 0 0 0 0 0 0 0 0 0 0 0 0 0 0 0 0 0 0 0 0
0 0 0 0 0 0 0 0 0 0 0 0 1 1 1 2 2 3 3 2 1 0 0 0 0 0 0 0 0 0 0 0 0 0 0 0 0 0 0 0 0 0 0 0
0 0 0 0 0 0 0 0 0 1 1 1 2 2 2 1 2 2 1 1 0 0 0 0 0 0 0 0 0 0 0 0 0 0 0 0 0 0 0 0 0 0 0 0
0 0 0 0 0 0 0 0 0 1 2 2 2 2 1 0 1 1 0 0 0 0 0 0 0 0 0 0 0 0 0 0 0 0 0 0 0 0 0 0 0 0 0 0
0 0 0 0 0 0 0 0 0 1 1 1 1 1 0 0 0 0 0 0 0 0 0 0 0 0 0 0 0 0 0 0 0 0 0 0 0 0 0 0 0 0 0 0
0 0 0 0 0 0 0 0 0 0 0 0 0 0 0 0 0 0 0 0 0 0 0 0 0 0 0 0 0 0 0 0 0 0 0 0 0 0 0 0 0 0 0 0
0 0 0 0 0 0 0 0 0 0 0 0 0 0 0 0 0 0 0 0 0 0 0 0 0 0 0 0 0 0 0 0 0 0 0 0 0 0 0 0 0 0 0 0

GEFSNGP_con_probscp_210.txt.gz
Probability
0 0 0 0 0 0 0 0 0 0 2 4 5 7 11 13 14 16 22 30 30 27 28 32 36 37 37 39 39 37 35 35 34 32 29 27 22 15 12 15 17 18 19 21
0 0 0 1 1 0 0 0 0 1 2 3 4 7 9 10 11 14 21 27 27 25 26 30 35 37 38 39 39 36 35 35 34 32 30 27 22 18 17 20 22 21 21 22
0 0 0 1 1 1 1 1 1 2 3 3 4 7 9 9 9 12 18 22 23 24 26 30 35 38 38 40 40 38 35 35 35 32 29 26 22 20 21 24 25 24 23 23
0 0 1 1 1 1 2 2 3 3 3 3 5 8 11 11 11 13 17 19 21 25 28 32 37 39 39 41 41 39 37 36 33 29 27 26 23 21 21 23 23 24 24 24
0 0 1 1 0 1 2 3 2 2 2 4 7 11 14 16 16 18 19 20 23 26 30 36 40 41 40 38 37 36 35 33 29 25 23 23 22 20 19 20 21 22 24 25
0 0 1 1 0 1 3 3 1 1 2 5 9 13 17 19 22 25 25 26 28 30 33 38 40 39 36 32 30 29 28 27 26 23 20 19 19 17 17 18 19 19 20 22
0 0 1 1 0 2 5 5 3 3 4 7 10 14 18 23 27 31 32 31 32 33 34 35 34 34 33 29 26 24 23 22 22 20 16 13 14 14 15 16 15 14 15 15
0 1 1 1 0 3 7 8 6 4 7 11 14 16 18 22 28 31 32 31 31 30 29 28 26 29 31 29 26 24 22 19 17 15 11 8 9 11 11 11 10 8 9 9
2 2 2 1 1 2 5 8 7 6 9 13 15 16 16 19 24 26 26 27 26 26 26 24 23 26 30 30 28 24 21 17 13 12 8 7 8 8 7 7 7 5 5 5
6 5 3 3 3 3 4 6 7 8 10 12 12 12 14 17 21 23 24 24 24 25 28 27 25 25 29 30 28 25 20 16 13 12 10 9 9 7 6 6 5 5 4 4
10 9 7 5 5 5 6 8 10 11 12 12 11 10 13 17 21 24 26 25 25 27 30 30 26 24 25 28 28 25 20 14 12 11 10 10 9 7 5 5 5 5 5 4
11 12 12 9 8 9 10 11 12 13 13 13 12 10 13 18 22 26 28 28 28 28 29 27 24 21 21 23 25 23 18 13 9 9 10 11 10 6 3 2 2 3 3 3
9 11 12 11 10 10 10 10 12 13 13 13 13 13 16 20 23 26 28 28 27 26 24 21 19 18 17 18 20 19 15 10 8 8 9 10 9 6 2 1 0 1 1 1
5 8 11 10 8 7 7 7 8 11 12 14 16 18 20 22 23 23 24 23 21 19 17 15 15 16 15 15 15 13 10 8 7 8 9 9 7 5 3 1 1 1 0 0
4 6 8 7 5 4 5 6 8 11 15 18 20 20 21 21 19 17 16 15 13 11 10 10 10 11 12 12 12 10 8 8 8 9 9 8 6 4 3 2 2 1 0 0
4 6 7 6 5 5 5 6 8 12 16 17 18 18 17 16 14 11 9 8 8 7 6 5 6 7 9 9 9 8 8 7 7 8 8 6 5 3 2 2 2 1 1 0
4 5 6 6 6 5 5 5 6 9 11 10 10 12 12 10 8 7 6 6 6 5 4 3 4 6 7 7 7 6 6 5 6 7 7 6 4 3 1 0 0 1 1 1
3 3 3 4 4 4 4 3 3 4 5 5 5 6 7 6 4 4 5 5 5 4 3 3 4 5 6 5 4 4 4 4 5 6 6 5 3 1 0 0 0 0 1 1
3 2 1 1 1 1 2 2 2 3 3 3 3 3 4 3 3 3 5 4 4 3 3 3 3 4 4 4 3 3 3 4 4 4 3 2 1 0 0 0 0 0 0 1
3 3 2 0 0 0 1 1 1 1 2 3 3 3 3 2 2 3 3 3 3 3 3 3 3 3 3 3 3 3 3 2 2 1 1 0 0 0 0 0 0 0 0 0
3 2 1 0 0 0 0 0 0 0 1 2 2 2 2 1 1 1 2 2 1 1 2 2 2 2 2 1 1 2 1 1 0 0 0 0 0 0 0 0 0 0 0 0
2 1 0 0 0 0 0 0 0 0 0 1 1 1 1 0 0 0 1 1 1 0 0 0 1 1 1 0 0 0 0 0 0 0 0 0 0 0 0 0 0 0 0 0
1 0 0 0 0 0 0 0 0 0 0 0 0 0 0 0 0 0 1 1 1 0 0 0 0 0 0 0 0 0 0 0 0 0 0 0 0 0 0 0 0 0 0 0
0 0 0 0 0 0 0 0 0 0 0 0 0 0 0 0 0 1 1 1 1 0 0 0 0 0 0 0 0 0 0 0 0 0 0 0 0 0 0 0 0 0 0 0
0 0 0 0 0 0 0 0 0 0 0 0 0 0 1 1 1 1 1 0 0 0 0 0 0 0 0 0 0 0 0 0 0 0 0 0 0 0 0 0 0 0 0 0
0 0 0 0 0 0 0 1 2 1 1 0 0 1 2 2 2 1 0 0 0 0 0 0 0 0 0 0 0 0 0 0 0 0 0 0 0 0 0 0 0 0 0 0
0 0 0 0 0 0 1 2 3 2 2 1 1 2 3 3 1 0 0 0 0 0 0 0 0 0 0 0 0 0 0 0 0 0 0 0 0 0 0 0 0 0 0 0

GEFSNGP_con_probscp_216.txt.gz
Probability
0 0 0 0 0 0 0 0 1 3 8 13 18 24 28 29 31 34 36 42 51 59 62 62 58 54 51 50 49 48 47 48 52 54 50 45 43 41 40 40 38 33 29 27
0 0 0 0 0 0 0 1 3 7 12 17 22 28 30 28 29 33 37 42 48 53 58 59 58 54 52 51 50 49 48 49 52 52 48 44 41 40 40 39 37 34 30 26
0 0 0 0 0 1 2 5 8 11 14 18 24 31 33 30 30 32 36 42 46 48 53 56 57 56 52 48 47 48 48 50 52 50 46 41 38 38 38 37 36 34 31 27
0 0 0 0 1 3 6 10 14 15 15 18 23 29 32 32 32 33 37 41 45 46 50 52 55 55 50 46 45 46 48 49 49 46 43 40 37 36 35 33 33 33 30 26
0 0 1 3 4 6 9 13 18 19 18 18 20 24 30 34 36 37 40 43 42 42 46 49 52 52 50 48 48 48 48 47 44 42 40 39 38 36 34 32 31 30 26 23
1 1 4 7 9 8 10 15 19 21 22 22 22 27 36 40 40 42 45 46 43 40 43 48 49 49 50 50 50 49 46 43 40 39 38 38 39 37 35 33 29 25 22 20
2 3 8 12 13 12 15 20 22 23 25 27 30 35 41 43 42 44 48 48 46 45 45 46 45 44 45 46 47 45 42 39 38 38 37 36 36 35 34 31 26 22 19 18
4 7 13 20 21 23 27 29 27 25 27 30 32 34 37 40 42 45 49 50 50 50 48 43 40 38 37 38 38 38 38 38 36 35 33 31 30 28 26 24 22 19 16 14
7 10 17 24 28 30 32 32 27 25 25 27 29 31 33 36 41 45 48 50 51 50 46 41 37 34 33 32 32 33 36 36 33 31 29 26 22 19 17 16 15 13 11 9
12 12 14 20 24 25 25 25 24 22 22 24 28 32 34 36 40 42 44 45 46 44 42 39 36 33 31 31 31 33 33 32 29 27 25 21 16 12 9 8 8 8 8 8
17 15 14 16 16 17 19 21 21 21 21 23 26 29 33 36 37 38 38 40 41 40 39 38 36 33 32 32 32 31 31 29 25 23 21 18 12 7 4 3 3 4 6 8
20 20 20 19 17 16 18 21 22 20 21 22 25 26 29 31 33 34 36 37 38 39 39 38 37 35 34 33 30 29 28 26 21 18 18 16 12 6 2 1 1 2 3 5
22 22 23 21 18 17 18 20 21 21 20 22 24 25 26 29 31 33 33 33 35 38 40 38 36 36 34 31 28 27 26 22 18 17 17 16 14 9 4 1 0 0 1 1
18 19 20 19 18 17 18 18 19 20 21 22 24 26 28 31 32 32 31 30 31 34 35 33 30 28 28 27 25 24 23 19 16 16 16 15 14 12 9 5 2 1 0 0
11 13 15 17 18 18 17 18 19 19 20 21 24 27 29 29 29 28 27 26 25 26 26 23 19 19 20 21 21 21 20 17 15 15 15 14 13 13 11 8 6 3 1 0
9 10 13 16 17 15 15 16 17 17 18 19 22 24 24 23 23 22 21 20 20 20 18 15 13 14 16 16 16 17 17 14 13 13 14 13 13 12 10 9 7 4 2 1
9 10 12 13 13 10 10 12 13 13 13 16 17 18 18 18 17 16 16 16 16 16 14 11 11 12 13 12 11 12 12 10 9 11 12 12 11 10 9 7 5 2 2 2
6 8 9 10 10 9 9 9 9 9 10 11 11 12 13 14 13 13 12 12 12 10 9 9 8 9 10 9 8 7 7 7 7 8 9 8 8 7 6 4 2 1 1 1
4 5 6 7 8 9 9 9 7 7 8 8 9 8 9 10 10 11 11 10 7 5 4 5 5 6 7 6 5 5 5 6 6 6 5 4 3 3 3 1 0 0 0 0
2 3 5 6 7 9 9 8 7 7 7 7 7 7 8 8 9 9 9 7 4 1 1 1 2 4 4 3 3 3 3 4 4 3 2 1 1 1 1 0 0 0 0 0
1 3 5 6 7 7 7 6 5 6 6 5 5 6 7 7 7 7 6 3 1 0 0 0 0 1 1 1 1 1 1 1 1 1 0 0 0 0 0 0 0 0 0 0
1 3 4 4 5 4 4 5 4 3 2 2 3 4 5 6 5 4 2 1 0 0 0 0 0 0 0 0 0 0 0 0 0 0 0 0 0 0 0 1 1 1 0 0
3 3 3 3 2 2 3 3 2 1 0 1 1 3 4 4 4 3 1 0 0 0 0 0 0 0 0 0 0 0 0 0 0 0 0 0 0 0 1 2 2 1 0 0
4 3 3 3 2 3 3 3 2 1 0 0 1 2 2 1 1 1 0 0 0 0 0 0 0 0 0 0 0 0 0 0 0 0 0 0 0 0 1 2 2 1 0 0
4 3 2 2 3 3 3 2 1 0 0 0 0 1 1 0 0 0 0 0 0 0 0 0 0 0 0 0 0 0 0 0 0 0 0 0 0 0 0 1 1 0 0 0
2 2 1 1 1 2 1 1 0 0 0 0 0 1 0 0 0 0 0 0 0 0 0 0 0 0 0 0 0 0 0 0 0 0 0 0 0 0 0 0 0 0 0 0
1 2 1 0 0 1 0 0 0 0 0 0 0 1 0 0 0 0 0 0 0 0 0 0 0 0 0 0 0 0 0 0 0 0 0 0 0 0 0 0 0 0 0 0

GEFSNGP_con_probscp_222.txt.gz
Probability
0 0 0 0 0 0 0 0 0 1 3 5 9 13 16 21 24 27 31 34 35 34 34 34 31 28 27 25 23 23 24 23 20 17 17 17 15 13 11 9 7 6 4 4
0 0 0 0 0 0 1 1 1 2 4 7 12 16 20 24 28 29 31 32 33 33 34 34 31 28 26 23 22 22 23 21 19 18 18 18 18 16 13 10 9 7 5 4
0 0 0 0 0 2 4 5 5 5 6 11 18 22 24 28 32 33 31 30 32 33 33 32 31 31 28 23 21 22 23 22 22 22 22 22 20 17 14 12 11 8 6 5
0 0 0 1 2 4 7 9 9 9 10 16 22 27 29 31 33 33 30 28 30 31 31 31 32 32 28 24 22 23 23 24 25 25 25 23 19 16 13 11 10 9 8 8
0 0 1 2 4 6 9 12 13 14 15 19 24 28 31 31 31 31 29 27 27 30 31 32 31 29 26 24 22 20 20 23 25 25 24 20 16 14 11 9 8 9 8 7
0 0 2 5 7 8 10 13 13 15 19 22 23 26 27 27 28 30 30 28 28 31 33 30 27 26 25 23 20 15 15 19 22 22 19 16 14 11 9 7 6 6 6 5
0 1 4 7 10 11 11 10 9 12 19 22 20 21 23 26 29 32 32 30 30 32 30 24 22 24 24 21 17 13 12 16 18 18 16 14 12 10 8 6 4 4 4 4
0 2 5 8 11 11 9 7 7 11 16 18 18 19 25 31 35 35 33 30 29 29 25 19 19 22 21 17 15 13 12 15 16 15 14 14 12 10 7 5 3 3 3 3
2 4 7 9 11 11 9 7 8 10 13 15 16 19 25 32 36 36 34 30 26 23 21 18 18 20 18 15 14 14 13 14 16 15 13 12 11 9 6 4 3 3 3 3
6 8 9 11 13 13 12 11 10 10 11 15 18 20 22 26 30 32 30 27 23 20 19 19 18 19 18 16 16 15 14 13 14 15 12 9 8 7 6 4 2 2 2 2
9 9 11 13 14 15 15 14 13 12 13 17 20 21 20 21 23 24 25 25 21 18 17 18 19 20 19 17 16 16 13 11 12 13 10 6 4 4 4 3 1 0 1 1
8 9 11 12 12 13 13 13 13 12 13 15 18 18 18 18 18 20 22 22 19 16 15 17 18 19 19 17 16 14 11 10 10 9 6 3 1 1 1 1 0 0 0 0
8 9 11 11 10 10 11 11 11 10 10 12 13 14 13 13 16 18 19 18 16 14 14 15 16 17 17 16 14 12 10 9 9 7 3 0 0 1 1 0 0 0 0 0
8 9 11 11 11 11 10 10 10 9 9 10 11 12 12 12 14 15 14 13 13 13 13 14 14 13 13 13 11 9 9 8 8 6 3 1 1 2 2 1 0 0 0 0
7 8 11 12 13 12 11 10 10 9 9 10 11 12 12 11 11 10 9 9 10 12 13 13 12 10 9 8 7 6 7 7 7 5 4 2 2 2 2 1 0 0 0 0
4 7 11 14 14 12 10 10 10 9 8 9 11 11 10 9 8 7 7 7 8 10 11 11 8 6 5 5 4 4 5 7 6 5 5 3 2 1 1 0 0 0 0 0
4 6 10 13 12 9 8 9 9 8 8 9 10 9 7 7 6 6 6 5 5 6 7 6 3 2 2 3 2 2 3 5 5 4 5 4 2 0 0 0 0 0 0 0
5 5 7 9 8 6 5 6 7 7 8 9 9 6 5 4 4 3 3 2 2 2 2 1 0 0 1 2 1 0 1 2 3 3 3 2 1 0 0 0 0 0 0 0
3 3 4 6 6 4 3 4 5 5 5 6 6 4 3 2 2 2 1 0 0 0 0 0 0 0 1 1 0 0 0 1 1 1 1 0 0 0 0 0 0 0 0 0
2 2 4 5 5 3 1 2 2 2 2 2 3 2 1 1 2 2 1 0 0 1 0 0 0 0 0 0 0 0 0 0 0 0 0 0 0 0 0 0 0 0 0 0
1 1 3 4 4 2 1 1 0 0 0 0 1 1 0 0 1 2 1 0 0 0 0 0 0 0 0 0 0 0 0 0 0 0 0 0 0 0 0 0 0 0 0 0
1 1 2 3 2 1 0 0 0 0 0 0 0 0 0 0 1 1 0 0 0 0 0 0 0 0 0 0 0 0 0 0 0 0 0 0 0 0 0 0 0 0 0 0
1 1 1 1 1 0 0 0 0 0 0 0 0 0 0 0 0 0 0 0 0 0 0 0 0 0 0 0 0 0 0 0 0 0 0 0 0 0 0 0 0 0 0 0
1 0 0 0 0 0 0 0 0 0 0 0 0 0 0 0 0 0 0 0 0 0 0 0 0 0 0 0 0 0 0 0 0 0 0 0 0 0 0 0 0 0 0 0
0 0 0 0 0 0 0 0 0 0 0 0 0 0 0 0 0 0 0 0 0 0 0 0 0 0 0 0 0 0 0 0 0 0 0 0 0 0 0 0 0 0 0 0
0 0 0 0 0 0 0 0 0 0 0 0 0 0 0 0 0 0 0 0 0 0 0 0 0 0 0 0 0 0 0 0 0 0 0 0 0 0 0 0 0 0 0 0
0 0 0 0 0 0 0 0 0 0 0 0 0 0 0 0 0 0 0 0 0 0 0 0 0 0 0 0 0 0 0 0 0 0 0 0 0 0 0 0 0 0 0 0

GEFSNGP_con_probscp_228.txt.gz
Probability
0 0 0 0 0 0 0 0 0 0 1 2 3 5 7 9 10 11 11 13 18 21 20 20 22 25 25 21 18 18 19 19 19 16 12 8 4 1 0 1 3 4 4 4
0 0 0 0 0 0 0 0 0 0 0 2 4 6 7 9 12 13 13 16 20 21 20 19 20 23 23 20 18 18 18 17 17 16 12 8 4 2 2 3 5 6 6 6
0 0 0 0 0 0 0 0 0 0 1 3 6 8 7 9 14 16 17 18 20 20 18 16 17 20 22 21 20 20 18 16 16 16 14 8 5 3 3 5 7 8 8 9
0 0 0 1 1 1 0 0 0 1 3 6 8 10 9 10 14 18 18 17 16 15 13 12 15 20 23 23 22 20 18 17 16 16 13 9 5 3 4 5 7 7 8 8
0 0 0 1 2 2 1 0 0 2 5 8 9 12 12 11 16 20 18 14 12 11 9 11 16 20 21 21 20 18 18 17 15 13 11 9 6 4 4 5 6 6 7 7
0 0 0 1 1 2 1 1 1 3 6 8 9 11 12 14 18 22 20 15 10 9 8 10 14 16 15 14 15 16 17 16 13 11 10 8 7 6 6 6 6 6 6 6
0 0 0 0 1 2 1 0 1 4 6 7 7 9 11 14 18 21 21 17 13 11 9 10 11 12 12 12 13 15 17 16 15 13 11 9 8 8 7 6 5 4 5 5
0 0 0 0 1 2 1 0 2 5 6 7 9 10 13 16 18 20 19 17 16 14 12 12 12 11 11 11 12 14 16 16 16 15 14 12 10 8 7 6 5 4 4 4
0 0 0 1 1 1 0 2 5 7 7 9 11 12 15 18 20 19 18 16 15 14 14 14 13 12 11 10 11 12 14 15 15 14 14 14 11 8 7 6 6 5 3 2
2 2 3 3 1 0 1 4 8 9 8 8 9 11 13 16 18 18 16 15 12 11 13 13 12 11 11 10 11 11 12 14 14 13 12 12 10 7 6 6 6 5 3 2
4 5 6 5 4 2 3 6 9 10 8 7 7 8 11 13 15 16 15 13 11 10 10 11 11 12 12 12 11 11 12 13 13 11 10 9 8 6 4 4 3 3 2 2
4 5 6 5 5 5 5 7 8 9 8 6 6 7 10 13 14 14 13 11 10 9 9 10 11 12 12 11 11 11 11 11 10 9 7 7 7 4 2 1 1 1 1 1
2 3 4 5 5 6 6 6 7 8 7 6 6 7 10 13 14 12 10 8 7 7 9 9 9 10 10 10 9 8 7 7 6 6 6 6 5 3 1 0 0 0 0 0
2 3 4 5 6 6 5 5 6 7 7 6 6 7 9 11 11 9 6 4 4 5 6 7 6 5 6 7 6 5 4 4 4 4 5 4 4 3 2 1 1 0 0 0
5 4 5 5 5 4 4 4 4 5 6 6 6 7 8 8 7 6 4 3 3 2 2 3 3 2 2 3 4 3 3 3 3 3 4 3 3 4 3 2 1 0 0 0
6 6 5 4 3 3 3 3 3 4 6 6 5 5 6 5 5 4 3 3 3 1 0 1 1 0 0 1 3 3 3 3 3 3 3 3 3 3 2 1 1 0 0 0
6 6 6 4 3 3 3 3 4 4 5 4 4 4 4 4 4 3 3 3 3 2 1 1 1 0 0 1 2 3 3 3 2 2 2 2 2 2 1 0 0 0 0 0
6 6 6 4 3 3 3 3 4 4 3 3 3 3 4 4 3 3 3 3 3 2 1 1 1 0 0 0 1 1 2 1 1 1 1 1 1 0 0 0 0 0 0 0
4 6 6 5 3 2 2 1 2 2 2 2 3 4 4 4 3 3 3 3 2 1 0 1 1 0 0 0 0 0 0 0 0 0 0 0 0 0 0 0 0 0 0 0
3 5 6 5 2 1 1 0 0 1 1 2 3 3 4 3 3 3 2 2 1 0 0 0 0 0 0 0 0 0 0 0 0 0 0 0 0 0 0 0 0 0 0 0
3 4 4 4 2 1 0 0 0 1 2 3 3 3 2 2 2 1 1 1 0 0 0 0 0 0 0 0 0 0 0 0 0 0 0 0 0 0 0 0 0 0 0 0
3 3 3 3 2 1 0 0 0 2 3 3 3 1 1 1 1 0 0 0 0 0 0 0 0 0 0 0 0 0 0 0 0 0 0 0 0 0 0 0 0 0 0 0
2 2 2 2 1 0 0 0 0 1 2 2 2 1 0 0 0 0 0 0 0 0 0 0 0 0 0 0 0 0 0 0 0 0 0 0 0 0 0 0 0 0 0 0
1 1 1 1 0 0 0 0 0 0 1 1 1 0 0 0 0 0 0 0 0 0 0 0 0 0 0 0 0 0 0 0 0 0 0 0 0 0 0 0 0 0 0 0
0 0 0 0 0 0 0 0 0 0 0 0 0 0 0 0 0 0 0 0 0 0 0 0 0 0 0 0 0 0 0 0 0 0 0 0 0 0 0 0 0 0 0 0
0 0 0 0 0 0 0 0 0 0 0 0 0 0 0 0 0 0 0 0 0 0 0 0 0 0 0 0 0 0 0 0 0 0 0 0 0 0 0 0 0 0 0 0
0 0 0 0 0 0 0 0 0 0 0 0 0 0 0 0 0 0 0 0 0 0 0 0 0 0 0 0 0 0 0 0 0 0 0 0 0 0 0 0 0 0 0 0